CW9119 Weather Reports


Display with metric or nautical units.
time (UTC)temp
F
wind
direction
speed
MPH
gust
MPH
rain 1hr
in
rain 24hr
in
rain mn
in
humidity
%
barometer
mb
20260902135110 68 157 1.0 7.0 0.00 0.03 0.03 62 1019.4
20260902134110 69 159 1.0 5.0 0.00 0.03 0.03 61 1019.5
20260902133110 69 251 3.0 8.0 0.00 0.03 0.03 64 1019.6
20260902132110 68 136 3.0 13.0 0.00 0.03 0.03 66 1019.5
20260902131110 67 309 1.0 7.0 0.00 0.03 0.03 71 1019.7
20260902130110 67 319 0.0 8.0 0.00 0.03 0.03 68 1019.8
20260902125110 67 320 0.0 1.0 0.00 0.03 0.03 69 1019.8
20260902123110 67 318 0.0 0.0 0.00 0.03 0.03 68 1019.7
20260902122110 67 317 1.0 8.0 0.00 0.03 0.03 66 1019.8
20260902121110 67 28 0.0 1.0 0.00 0.03 0.03 69 1019.9
20260902114109 67 68 0.0 4.0 0.00 0.03 0.03 67 1020.0
20260902113109 67 71 0.0 0.0 0.00 0.03 0.03 67 1020.1
20260902112109 68 71 0.0 2.0 0.00 0.03 0.03 66 1020.1
20260902110109 67 109 1.0 8.0 0.00 0.03 0.03 69 1020.4
20260902105109 68 138 2.0 8.0 0.00 0.03 0.03 67 1020.5
20260902100111 67 89 1.0 6.0 0.00 0.03 0.03 73 1020.6
20260902094111 66 340 1.0 7.0 0.00 0.03 0.03 73 1020.5
20260902093111 66 325 1.0 6.0 0.00 0.03 0.03 74 1020.4
20260902091111 66 307 0.0 2.0 0.00 0.03 0.03 75 1020.8
20260902090111 65 306 0.0 1.0 0.00 0.03 0.03 74 1020.8
20260902084111 65 299 0.0 1.0 0.00 0.03 0.03 74 1020.8
20260902083110 65 301 0.0 0.0 0.00 0.03 0.03 77 1020.8
20260902081110 64 222 0.0 1.0 0.00 0.03 0.03 81 1020.6
20260902075110 62 184 0.0 1.0 0.00 0.03 0.03 88 1020.6
20260902073110 60 165 0.0 0.0 0.00 0.03 0.03 94 1020.6
20260902071110 58 184 0.0 0.0 0.00 0.03 0.03 96 1020.5
20260902065110 57 184 0.0 0.0 0.00 0.03 0.03 96 1020.3
20260902064110 57 184 0.0 0.0 0.00 0.03 0.03 96 1020.4
20260902063110 56 184 0.0 0.0 0.00 0.03 0.03 96 1020.5
20260902060110 53 184 0.0 0.0 0.00 0.03 0.03 95 1020.1
20260902053109 52 184 0.0 0.0 0.00 0.03 0.03 95 1020.0
20260902045109 52 184 0.0 0.0 0.00 0.03 0.03 94 1019.6
20260902043109 52 184 0.0 0.0 0.00 0.03 0.03 95 1019.7
20260902042109 52 184 0.0 0.0 0.01 0.03 0.03 95 1019.7
20260902041109 52 184 0.0 0.0 0.01 0.03 0.03 95 1019.5
20260902035109 52 184 0.0 0.0 0.01 0.03 0.03 95 1019.8
20260902025108 52 184 0.0 0.0 0.02 0.02 0.02 94 1019.9
20260902024109 52 184 0.0 0.0 0.02 0.02 0.02 94 1020.0
20260902022108 52 184 0.0 0.0 0.02 0.02 0.02 94 1020.0
20260902021108 51 184 0.0 0.0 0.01 0.01 0.01 94 1020.2
20260902015109 51 0 0.0 0.0 0.00 0.00 0.00 94 1020.1
20260902013110 51 184 0.0 0.0 0.00 0.00 0.00 94 1020.1
20260902011110 51 184 0.0 0.0 0.00 0.00 0.00 94 1020.1
20260902010111 52 184 0.0 0.0 0.00 0.00 0.00 94 1019.9
20260902005111 52 184 0.0 0.0 0.00 0.00 0.00 94 1020.1
20260902004112 52 184 0.0 0.0 0.00 0.00 0.00 94 1020.1
20260902002111 51 184 0.0 0.0 0.00 0.00 0.00 94 1019.8
20260902001111 51 184 0.0 0.0 0.00 0.00 0.00 94 1019.9
20260901223111 51 192 0.0 0.0 0.00 0.00 0.00 92 1020.0
20260901221110 51 192 0.0 0.0 0.00 0.00 0.00 92 1019.9
20260901215110 51 192 0.0 0.0 0.00 0.00 0.00 92 1020.0
20260901214110 51 192 0.0 0.0 0.00 0.00 0.00 91 1020.0
20260901213110 51 192 0.0 0.0 0.00 0.00 0.00 91 1019.9
20260901212110 51 192 0.0 0.0 0.00 0.00 0.00 91 1019.7
20260901205110 52 192 0.0 0.0 0.00 0.00 0.00 90 1019.6
20260901204110 52 192 0.0 0.0 0.00 0.00 0.00 89 1019.6
20260901203110 53 192 0.0 0.0 0.00 0.00 0.00 89 1019.8
20260901202109 53 192 0.0 0.0 0.00 0.00 0.00 88 1019.7
20260901195109 54 192 0.0 0.0 0.00 0.00 0.00 87 1019.5
20260901194109 54 192 0.0 0.0 0.00 0.00 0.00 87 1019.5
20260901193109 55 192 0.0 0.0 0.00 0.00 0.00 86 1019.5
20260901191109 56 192 0.0 0.0 0.00 0.00 0.00 85 1019.4
20260901190109 56 192 0.0 0.0 0.00 0.00 0.00 84 1019.4
20260901185109 57 192 0.0 0.0 0.00 0.00 0.00 84 1019.5
20260901184109 58 192 0.0 0.0 0.00 0.00 0.00 83 1019.4
20260901183109 58 192 0.0 0.0 0.00 0.00 0.00 82 1019.3
20260901171109 62 192 0.0 0.0 0.00 0.00 0.00 74 1018.9
20260901165108 63 192 0.0 0.0 0.00 0.00 0.00 72 1018.7
20260901160111 63 192 0.0 0.0 0.00 0.00 0.00 73 1018.6
20260901153111 64 192 0.0 4.0 0.00 0.00 0.00 73 1018.6
20260901151112 64 295 1.0 10.0 0.00 0.00 0.00 72 1018.7
20260901150111 64 314 1.0 7.0 0.00 0.00 0.00 70 1018.6
20260901142111 65 5 0.0 1.0 0.00 0.00 0.00 70 1019.0
20260901141111 65 345 1.0 7.0 0.00 0.00 0.00 70 1019.1